TimeCST,TemperatureF,Dew PointF,Humidity,Sea Level PressureIn,VisibilityMPH,Wind Direction,Wind SpeedMPH,Gust SpeedMPH,PrecipitationIn,Events,Conditions,WindDirDegrees,DateUTC
12:15 AM,46.8,34.9,63,30.07,10.0,Calm,Calm,-,N/A,,Clear,0,2013-02-15 06:15:00
12:55 AM,48.6,36.0,62,30.08,10.0,SW,3.5,-,N/A,,Clear,220,2013-02-15 06:55:00
1:15 AM,43.5,34.9,72,30.08,10.0,Calm,Calm,-,N/A,,Clear,0,2013-02-15 07:15:00
1:35 AM,41.0,33.8,76,30.09,10.0,Calm,Calm,-,N/A,,Clear,0,2013-02-15 07:35:00
1:55 AM,40.5,33.8,77,30.09,10.0,Calm,Calm,-,N/A,,Clear,0,2013-02-15 07:55:00
2:15 AM,39.9,33.3,77,30.09,10.0,Calm,Calm,-,N/A,,Clear,0,2013-02-15 08:15:00
2:35 AM,36.1,32.2,86,30.09,10.0,Calm,Calm,-,N/A,,Clear,0,2013-02-15 08:35:00
2:55 AM,36.7,32.4,84,30.08,10.0,North,4.6,-,N/A,,Clear,360,2013-02-15 08:55:00
3:15 AM,35.1,31.8,88,30.09,10.0,NW,3.5,-,N/A,,Clear,310,2013-02-15 09:15:00
3:35 AM,34.7,32.0,90,30.09,10.0,Calm,Calm,-,N/A,,Clear,0,2013-02-15 09:35:00
3:55 AM,34.7,31.8,89,30.09,10.0,NW,3.5,-,N/A,,Clear,320,2013-02-15 09:55:00
4:15 AM,34.7,31.8,89,30.09,10.0,NW,4.6,-,N/A,,Clear,310,2013-02-15 10:15:00
4:35 AM,34.3,31.6,90,30.09,10.0,North,6.9,-,N/A,,Clear,360,2013-02-15 10:35:00
4:55 AM,35.1,32.0,89,30.09,10.0,NW,3.5,-,N/A,,Clear,320,2013-02-15 10:55:00
5:15 AM,36.1,33.1,89,30.12,10.0,North,11.5,-,N/A,,Clear,350,2013-02-15 11:15:00
5:35 AM,39.7,35.6,85,30.14,10.0,NW,9.2,-,N/A,,Clear,320,2013-02-15 11:35:00
5:55 AM,41.5,36.0,81,30.16,10.0,NW,5.8,-,N/A,,Clear,320,2013-02-15 11:55:00
6:15 AM,41.0,35.4,81,30.16,10.0,Calm,Calm,-,N/A,,Clear,0,2013-02-15 12:15:00
6:35 AM,39.7,34.9,83,30.17,10.0,Calm,Calm,-,N/A,,Clear,0,2013-02-15 12:35:00
6:55 AM,36.9,34.2,90,30.17,10.0,Calm,Calm,-,N/A,,Clear,0,2013-02-15 12:55:00
7:15 AM,38.3,34.0,84,30.18,10.0,NW,6.9,-,N/A,,Clear,310,2013-02-15 13:15:00
7:35 AM,39.7,33.1,77,30.20,10.0,NW,5.8,-,N/A,,Clear,310,2013-02-15 13:35:00
7:55 AM,41.2,33.4,74,30.21,10.0,West,3.5,-,N/A,,Clear,270,2013-02-15 13:55:00
8:15 AM,42.1,34.7,75,30.21,10.0,NW,6.9,-,N/A,,Clear,310,2013-02-15 14:15:00
8:35 AM,43.0,35.2,74,30.22,10.0,NW,8.1,-,N/A,,Clear,320,2013-02-15 14:35:00
8:55 AM,43.9,35.8,73,30.23,10.0,NNW,6.9,-,N/A,,Clear,330,2013-02-15 14:55:00
9:15 AM,45.5,36.0,69,30.24,10.0,NNW,4.6,-,N/A,,Clear,340,2013-02-15 15:15:00
9:35 AM,46.6,36.1,67,30.24,10.0,NW,11.5,-,N/A,,Clear,320,2013-02-15 15:35:00
9:55 AM,47.7,36.3,65,30.24,10.0,NNW,8.1,-,N/A,,Clear,340,2013-02-15 15:55:00
10:15 AM,48.7,36.5,63,30.25,10.0,NNE,8.1,-,N/A,,Clear,20,2013-02-15 16:15:00
10:35 AM,49.8,36.5,60,30.25,10.0,NNE,5.8,-,N/A,,Clear,20,2013-02-15 16:35:00
10:55 AM,51.4,36.5,57,30.25,10.0,North,10.4,-,N/A,,Clear,350,2013-02-15 16:55:00
11:15 AM,52.0,36.3,55,30.25,10.0,North,8.1,-,N/A,,Clear,360,2013-02-15 17:15:00
11:55 AM,54.5,36.5,51,30.25,10.0,North,10.4,-,N/A,,Clear,360,2013-02-15 17:55:00
12:15 PM,55.0,35.4,48,30.25,10.0,North,12.7,-,N/A,,Clear,10,2013-02-15 18:15:00
12:35 PM,54.5,35.6,49,30.24,10.0,North,10.4,-,N/A,,Scattered Clouds,360,2013-02-15 18:35:00
1:15 PM,55.9,35.4,46,30.23,10.0,NNE,15.0,18.4,N/A,,Overcast,20,2013-02-15 19:15:00
1:35 PM,55.6,34.9,46,30.21,10.0,NNE,10.4,-,N/A,,Overcast,20,2013-02-15 19:35:00
1:55 PM,55.4,35.6,47,30.21,10.0,NNE,11.5,-,N/A,,Overcast,30,2013-02-15 19:55:00
2:15 PM,55.2,35.2,47,30.21,10.0,NNE,10.4,-,N/A,,Overcast,30,2013-02-15 20:15:00
2:35 PM,54.7,34.9,47,30.21,10.0,NE,10.4,16.1,N/A,,Overcast,40,2013-02-15 20:35:00
2:55 PM,54.5,35.4,49,30.21,10.0,NNE,9.2,-,N/A,,Overcast,20,2013-02-15 20:55:00
3:15 PM,54.3,35.1,48,30.21,10.0,NNE,12.7,17.3,N/A,,Overcast,30,2013-02-15 21:15:00
3:35 PM,53.6,35.2,50,30.21,10.0,NNE,11.5,-,N/A,,Overcast,30,2013-02-15 21:35:00
3:55 PM,53.8,35.6,50,30.21,10.0,NNE,10.4,-,N/A,,Overcast,30,2013-02-15 21:55:00
4:15 PM,53.4,36.0,52,30.21,10.0,NNE,15.0,-,N/A,,Overcast,30,2013-02-15 22:15:00
4:35 PM,52.2,35.8,54,30.22,10.0,NE,11.5,-,N/A,,Overcast,40,2013-02-15 22:35:00
4:55 PM,51.6,35.8,55,30.24,10.0,NNE,13.8,-,N/A,,Overcast,30,2013-02-15 22:55:00
5:15 PM,50.9,35.6,56,30.24,10.0,NE,11.5,-,N/A,,Overcast,40,2013-02-15 23:15:00
5:35 PM,50.0,34.7,56,30.25,10.0,NE,11.5,18.4,N/A,,Overcast,40,2013-02-15 23:35:00
5:55 PM,49.5,35.2,58,30.26,10.0,North,13.8,-,N/A,,Overcast,10,2013-02-15 23:55:00
6:15 PM,49.3,34.9,58,30.26,10.0,NNE,10.4,-,N/A,,Overcast,30,2013-02-16 00:15:00
6:35 PM,49.1,35.6,60,30.27,10.0,NNE,11.5,-,N/A,,Overcast,20,2013-02-16 00:35:00
6:55 PM,48.6,35.1,60,30.28,10.0,NNE,11.5,19.6,N/A,,Overcast,20,2013-02-16 00:55:00
7:15 PM,47.7,33.4,58,30.30,10.0,NNE,13.8,18.4,N/A,,Overcast,20,2013-02-16 01:15:00
7:35 PM,46.8,32.9,59,30.31,10.0,NNE,11.5,16.1,N/A,,Overcast,30,2013-02-16 01:35:00
7:55 PM,45.3,32.0,60,30.32,10.0,NE,9.2,-,N/A,,Scattered Clouds,40,2013-02-16 01:55:00
8:15 PM,44.6,31.6,60,30.33,10.0,NNE,8.1,-,N/A,,Clear,30,2013-02-16 02:15:00
8:35 PM,43.7,30.6,60,30.33,10.0,NE,10.4,-,N/A,,Clear,40,2013-02-16 02:35:00
8:55 PM,43.3,27.7,54,30.35,10.0,NNE,11.5,-,N/A,,Clear,20,2013-02-16 02:55:00
9:15 PM,42.3,27.1,55,30.36,10.0,NNE,10.4,-,N/A,,Clear,30,2013-02-16 03:15:00
9:35 PM,41.5,24.3,50,30.36,10.0,NNE,10.4,-,N/A,,Clear,20,2013-02-16 03:35:00
9:55 PM,40.5,23.9,52,30.37,10.0,NNE,5.8,-,N/A,,Clear,30,2013-02-16 03:55:00
10:15 PM,39.4,23.7,54,30.37,10.0,North,6.9,-,N/A,,Clear,10,2013-02-16 04:15:00
10:35 PM,37.2,23.4,57,30.37,10.0,North,3.5,-,N/A,,Clear,360,2013-02-16 04:35:00
10:55 PM,36.0,24.3,63,30.37,10.0,Calm,Calm,-,N/A,,Clear,0,2013-02-16 04:55:00
11:15 PM,35.2,24.6,65,30.38,10.0,NW,3.5,-,N/A,,Clear,310,2013-02-16 05:15:00
11:35 PM,34.0,25.2,70,30.38,10.0,NW,6.9,-,N/A,,Clear,320,2013-02-16 05:35:00
11:55 PM,33.6,24.4,69,30.38,10.0,NW,4.6,-,N/A,,Clear,320,2013-02-16 05:55:00